• In Hungary
  • List of Countries
  • For 7 days
  • Water Temperature
  • Satellite Maps
  • Weather Map
  • News
  • Weather Widgets
  • user-avatar
    Login

    Hourly Weather Hasselt

    Today, 23 October, Monday

    Time Temperature Precipitation Wind Pressure Humidity
    00:00 +8°C° 0 mm 5 mps 759 mmHg 82%
    01:00 +8°C° 0 mm 5 mps 759 mmHg 82%
    02:00 +8°C° 0 mm 4 mps 759 mmHg 82%
    03:00 +10°C° 0 mm 4 mps 759 mmHg 83%
    04:00 +8°C° 0 mm 4 mps 760 mmHg 84%
    05:00 +8°C° 0 mm 4 mps 760 mmHg 86%
    06:00 +8°C° 0 mm 4 mps 760 mmHg 87%
    07:00 +9°C° 0 mm 5 mps 760 mmHg 84%
    08:00 +10°C° 0 mm 5 mps 761 mmHg 81%
    09:00 +12°C° 0 mm 5 mps 761 mmHg 78%
    10:00 +12°C° 0 mm 5 mps 761 mmHg 76%
    11:00 +13°C° 0 mm 5 mps 761 mmHg 74%
    12:00 +14°C° 0 mm 5 mps 761 mmHg 72%
    13:00 +13°C° 0.2 mm 5 mps 761 mmHg 76%
    14:00 +13°C° 0.2 mm 4 mps 761 mmHg 80%
    15:00 +13°C° 0.2 mm 4 mps 761 mmHg 85%
    16:00 +12°C° 0.3 mm 4 mps 761 mmHg 88%
    17:00 +12°C° 0.3 mm 3 mps 762 mmHg 91%
    18:00 +11°C° 0.3 mm 3 mps 762 mmHg 95%
    19:00 +12°C° 0.2 mm 3 mps 762 mmHg 95%
    20:00 +12°C° 0.2 mm 3 mps 762 mmHg 94%
    21:00 +12°C° 0.2 mm 3 mps 762 mmHg 94%
    22:00 +12°C° 0.1 mm 3 mps 762 mmHg 94%
    23:00 +12°C° 0.1 mm 3 mps 762 mmHg 94%

    Tomorrow, 24 October, Tuesday

    Time Temperature Precipitation Wind Pressure Humidity
    00:00 +12°C° 0.1 mm 3 mps 762 mmHg 95%
    01:00 +13°C° 0.1 mm 3 mps 762 mmHg 95%
    02:00 +13°C° 0.1 mm 3 mps 762 mmHg 95%
    03:00 +13°C° 0.1 mm 3 mps 762 mmHg 96%
    04:00 +13°C° 0.1 mm 3 mps 762 mmHg 96%
    05:00 +13°C° 0.1 mm 3 mps 762 mmHg 96%
    06:00 +13°C° 0.1 mm 3 mps 762 mmHg 97%
    07:00 +14°C° 0.3 mm 3 mps 762 mmHg 96%
    08:00 +14°C° 0.3 mm 4 mps 762 mmHg 94%
    09:00 +15°C° 0.3 mm 4 mps 763 mmHg 93%
    10:00 +15°C° 0.1 mm 4 mps 763 mmHg 93%
    11:00 +15°C° 0.1 mm 4 mps 763 mmHg 92%
    12:00 +17°C° 0.1 mm 4 mps 763 mmHg 91%
    13:00 +17°C° 0 mm 4 mps 763 mmHg 91%
    14:00 +17°C° 0 mm 4 mps 762 mmHg 91%
    15:00 +17°C° 0 mm 4 mps 762 mmHg 91%
    16:00 +17°C° 0 mm 4 mps 763 mmHg 92%
    17:00 +17°C° 0 mm 4 mps 763 mmHg 92%
    18:00 +15°C° 0 mm 4 mps 763 mmHg 93%
    19:00 +15°C° 0 mm 4 mps 763 mmHg 93%
    20:00 +15°C° 0 mm 4 mps 763 mmHg 93%
    21:00 +15°C° 0 mm 4 mps 763 mmHg 93%
    22:00 +15°C° 0 mm 5 mps 763 mmHg 93%
    23:00 +15°C° 0 mm 5 mps 763 mmHg 92%

    Day after tomorrow, 25 October, Wednesday

    Time Temperature Precipitation Wind Pressure Humidity
    00:00 +15°C° 0 mm 5 mps 763 mmHg 92%
    01:00 +14°C° 0 mm 5 mps 763 mmHg 92%
    02:00 +14°C° 0 mm 5 mps 762 mmHg 92%
    03:00 +13°C° 0 mm 4 mps 762 mmHg 92%
    04:00 +13°C° 0 mm 4 mps 762 mmHg 92%
    05:00 +13°C° 0 mm 4 mps 762 mmHg 92%
    06:00 +12°C° 0 mm 4 mps 763 mmHg 92%
    07:00 +13°C° 0 mm 4 mps 763 mmHg 89%
    08:00 +14°C° 0 mm 4 mps 763 mmHg 85%
    09:00 +14°C° 0 mm 5 mps 763 mmHg 82%
    10:00 +15°C° 0 mm 4 mps 763 mmHg 78%
    11:00 +17°C° 0 mm 4 mps 763 mmHg 73%
    12:00 +18°C° 0 mm 4 mps 763 mmHg 69%
    13:00 +18°C° 0 mm 4 mps 763 mmHg 70%
    14:00 +18°C° 0 mm 3 mps 763 mmHg 71%
    15:00 +18°C° 0 mm 3 mps 763 mmHg 72%
    16:00 +17°C° 0 mm 2 mps 763 mmHg 77%
    17:00 +16°C° 0 mm 2 mps 764 mmHg 81%
    18:00 +15°C° 0 mm 2 mps 764 mmHg 85%
    19:00 +14°C° 0 mm 2 mps 764 mmHg 86%
    20:00 +14°C° 0 mm 2 mps 764 mmHg 87%
    21:00 +13°C° 0 mm 2 mps 764 mmHg 89%
    22:00 +13°C° 0 mm 2 mps 764 mmHg 89%
    23:00 +12°C° 0 mm 3 mps 764 mmHg 90%

    26 October, Thursday

    Time Temperature Precipitation Wind Pressure Humidity
    00:00 +12°C° 0 mm 3 mps 764 mmHg 90%
    01:00 +12°C° 0 mm 3 mps 763 mmHg 91%
    02:00 +12°C° 0 mm 3 mps 763 mmHg 91%
    03:00 +12°C° 0 mm 3 mps 763 mmHg 92%
    04:00 +12°C° 0 mm 3 mps 763 mmHg 92%
    05:00 +12°C° 0 mm 3 mps 763 mmHg 93%
    06:00 +12°C° 0 mm 3 mps 763 mmHg 93%
    07:00 +13°C° 0 mm 3 mps 763 mmHg 90%
    08:00 +14°C° 0 mm 4 mps 763 mmHg 86%
    09:00 +15°C° 0 mm 4 mps 763 mmHg 82%
    10:00 +17°C° 0 mm 4 mps 763 mmHg 78%
    11:00 +18°C° 0 mm 4 mps 763 mmHg 74%
    12:00 +19°C° 0 mm 4 mps 763 mmHg 70%
    13:00 +19°C° 0 mm 4 mps 762 mmHg 72%
    14:00 +18°C° 0 mm 3 mps 762 mmHg 73%
    15:00 +18°C° 0 mm 3 mps 762 mmHg 75%
    16:00 +17°C° 0 mm 3 mps 762 mmHg 80%
    17:00 +16°C° 0 mm 2 mps 762 mmHg 85%
    18:00 +14°C° 0 mm 2 mps 762 mmHg 90%
    19:00 +14°C° 0 mm 2 mps 762 mmHg 91%
    20:00 +13°C° 0 mm 3 mps 762 mmHg 91%
    21:00 +13°C° 0 mm 3 mps 762 mmHg 91%
    22:00 +13°C° 0 mm 3 mps 762 mmHg 92%
    23:00 +13°C° 0 mm 4 mps 761 mmHg 93%

    27 October, Friday

    Time Temperature Precipitation Wind Pressure Humidity
    00:00 +12°C° 0 mm 4 mps 761 mmHg 94%
    01:00 +12°C° 0 mm 4 mps 761 mmHg 93%
    02:00 +13°C° 0 mm 5 mps 761 mmHg 92%
    03:00 +13°C° 0 mm 5 mps 760 mmHg 91%
    04:00 +13°C° 0.3 mm 5 mps 761 mmHg 90%
    05:00 +12°C° 0.3 mm 4 mps 761 mmHg 89%
    06:00 +12°C° 0.3 mm 4 mps 761 mmHg 88%
    07:00 +12°C° 0.1 mm 4 mps 762 mmHg 83%
    08:00 +12°C° 0.1 mm 5 mps 762 mmHg 79%
    09:00 +13°C° 0.1 mm 5 mps 763 mmHg 75%
    10:00 +12°C° 0 mm 5 mps 763 mmHg 73%
    11:00 +12°C° 0 mm 5 mps 764 mmHg 71%
    12:00 +12°C° 0 mm 5 mps 764 mmHg 69%
    13:00 +12°C° 0 mm 4 mps 764 mmHg 69%
    14:00 +12°C° 0 mm 4 mps 764 mmHg 70%
    15:00 +12°C° 0 mm 4 mps 764 mmHg 70%
    16:00 +11°C° 0 mm 4 mps 764 mmHg 72%
    17:00 +11°C° 0 mm 4 mps 764 mmHg 74%
    18:00 +10°C° 0 mm 4 mps 764 mmHg 76%
    19:00 +10°C° 0 mm 4 mps 764 mmHg 77%
    20:00 +8°C° 0 mm 4 mps 764 mmHg 79%
    21:00 +8°C° 0 mm 4 mps 764 mmHg 81%
    22:00 +8°C° 0 mm 5 mps 763 mmHg 79%
    23:00 +9°C° 0 mm 6 mps 762 mmHg 77%

    28 October, Saturday

    Time Temperature Precipitation Wind Pressure Humidity
    00:00 +9°C° 0 mm 6 mps 762 mmHg 75%
    01:00 +9°C° 0 mm 6 mps 761 mmHg 75%
    02:00 +9°C° 0 mm 7 mps 760 mmHg 75%
    03:00 +8°C° 0 mm 7 mps 759 mmHg 75%
    04:00 +8°C° 0 mm 7 mps 759 mmHg 73%
    05:00 +8°C° 0 mm 7 mps 758 mmHg 71%
    06:00 +8°C° 0 mm 7 mps 757 mmHg 69%
    07:00 +9°C° 0 mm 8 mps 757 mmHg 67%
    08:00 +10°C° 0 mm 8 mps 757 mmHg 65%
    09:00 +11°C° 0 mm 9 mps 757 mmHg 63%
    10:00 +12°C° 0 mm 9 mps 756 mmHg 63%
    11:00 +13°C° 0 mm 9 mps 756 mmHg 63%
    12:00 +15°C° 0 mm 9 mps 755 mmHg 63%
    13:00 +15°C° 0 mm 9 mps 755 mmHg 67%
    14:00 +15°C° 0 mm 9 mps 754 mmHg 71%
    15:00 +15°C° 0 mm 8 mps 754 mmHg 74%
    16:00 +15°C° 0.2 mm 8 mps 753 mmHg 77%
    17:00 +15°C° 0.2 mm 8 mps 753 mmHg 80%
    18:00 +15°C° 0.2 mm 8 mps 752 mmHg 83%
    19:00 +15°C° 0.4 mm 8 mps 752 mmHg 83%
    20:00 +15°C° 0.4 mm 8 mps 752 mmHg 84%
    21:00 +15°C° 0.4 mm 9 mps 752 mmHg 85%
    22:00 +13°C° 0.6 mm 8 mps 751 mmHg 85%
    23:00 +13°C° 0.6 mm 8 mps 751 mmHg 86%
    Show more